Terug naar catalogus

CHINASAT 1A

ActiefCommunicatieGEO
NORAD 37804·PAYLOAD·🇨🇳 China

Gelanceerd Sep 17, 2011 vanaf Xichang Satellite Launch Center

Loading…

TLE

VersSource: Space-Track

Epoch: Sep 14, 2026, 14:05 UTC

1 37804U 11047A   26257.58697440  .00000081  00000-0  00000-0 0  9999
2 37804   3.9423  77.1920 0001187 238.6074 308.7345  1.00020765 28223

Volg CHINASAT 1A in realtime met AllMySat

Download on the App Store